TimePST,TemperatureF,Dew PointF,Humidity,Sea Level PressureIn,VisibilityMPH,Wind Direction,Wind SpeedMPH,Gust SpeedMPH,PrecipitationIn,Events,Conditions,WindDirDegrees,DateUTC
12:53 AM,48.0,45.0,89,30.38,8.0,SSE,5.8,-,N/A,,Overcast,150,2013-01-31 08:53:00
1:20 AM,48.2,44.6,87,30.38,10.0,SSE,5.8,-,N/A,,Overcast,160,2013-01-31 09:20:00
1:39 AM,48.2,44.6,87,30.39,10.0,SSE,4.6,-,N/A,,Overcast,160,2013-01-31 09:39:00
1:53 AM,48.0,45.0,89,30.39,10.0,Calm,Calm,-,N/A,,Overcast,0,2013-01-31 09:53:00
2:53 AM,48.0,45.0,89,30.40,10.0,SSE,5.8,-,N/A,,Overcast,150,2013-01-31 10:53:00
3:53 AM,48.0,45.0,89,30.40,10.0,SSE,3.5,-,0.01,Rain,Light Rain,150,2013-01-31 11:53:00
4:53 AM,48.0,44.1,86,30.39,10.0,ESE,4.6,-,0.01,,Overcast,120,2013-01-31 12:53:00
5:49 AM,46.4,44.6,93,30.38,10.0,SSE,5.8,-,N/A,,Overcast,150,2013-01-31 13:49:00
5:53 AM,48.0,44.1,86,30.38,10.0,Variable,6.9,-,N/A,,Overcast,0,2013-01-31 13:53:00
5:58 AM,48.2,44.6,87,30.38,10.0,SSE,8.1,-,N/A,,Overcast,150,2013-01-31 13:58:00
6:53 AM,48.0,45.0,89,30.38,10.0,SE,9.2,-,N/A,,Overcast,140,2013-01-31 14:53:00
7:53 AM,48.9,43.0,80,30.38,10.0,South,6.9,-,N/A,,Overcast,170,2013-01-31 15:53:00
8:53 AM,48.9,43.0,80,30.37,10.0,SSE,8.1,-,N/A,,Overcast,160,2013-01-31 16:53:00
9:00 AM,48.2,44.6,87,30.37,10.0,SSE,8.1,-,N/A,,Overcast,160,2013-01-31 17:00:00
9:13 AM,48.2,44.6,87,30.37,10.0,SSE,9.2,-,0.00,Rain,Light Rain,150,2013-01-31 17:13:00
9:53 AM,48.9,43.0,80,30.37,10.0,SSE,9.2,-,0.00,,Overcast,150,2013-01-31 17:53:00
10:53 AM,48.9,43.0,80,30.37,10.0,SSE,10.4,-,0.03,,Overcast,160,2013-01-31 18:53:00
11:53 AM,50.0,44.1,80,30.35,10.0,SSE,9.2,-,0.00,,Mostly Cloudy,160,2013-01-31 19:53:00
12:53 PM,51.1,44.1,77,30.34,10.0,South,9.2,-,N/A,,Mostly Cloudy,170,2013-01-31 20:53:00
1:24 PM,50.0,44.6,82,30.32,10.0,South,10.4,23.0,N/A,,Overcast,170,2013-01-31 21:24:00
1:31 PM,51.8,44.6,76,30.32,10.0,South,9.2,19.6,N/A,,Mostly Cloudy,170,2013-01-31 21:31:00
1:53 PM,52.0,45.0,77,30.32,10.0,South,11.5,-,N/A,,Mostly Cloudy,170,2013-01-31 21:53:00
2:53 PM,51.1,43.0,74,30.31,10.0,SSE,11.5,-,N/A,,Mostly Cloudy,160,2013-01-31 22:53:00
3:53 PM,51.1,43.0,74,30.30,10.0,SSE,9.2,-,N/A,,Overcast,160,2013-01-31 23:53:00
4:53 PM,51.1,43.0,74,30.31,10.0,Variable,5.8,-,N/A,,Overcast,0,2013-02-01 00:53:00
5:53 PM,50.0,43.0,77,30.32,10.0,South,8.1,-,N/A,,Overcast,190,2013-02-01 01:53:00
6:46 PM,50.0,44.6,82,30.32,9.0,Variable,5.8,-,N/A,,Overcast,0,2013-02-01 02:46:00
6:53 PM,48.9,44.1,83,30.32,5.0,SSE,6.9,-,N/A,,Haze,150,2013-02-01 02:53:00
7:53 PM,48.9,45.0,86,30.32,4.0,SSE,3.5,-,0.01,,Overcast,150,2013-02-01 03:53:00
8:53 PM,48.9,45.0,86,30.32,3.0,SSE,3.5,-,N/A,,Overcast,150,2013-02-01 04:53:00
9:53 PM,48.0,46.0,93,30.32,3.0,Calm,Calm,-,0.01,,Overcast,0,2013-02-01 05:53:00
10:53 PM,48.0,45.0,89,30.32,8.0,SE,3.5,-,N/A,,Overcast,140,2013-02-01 06:53:00
11:53 PM,48.9,45.0,86,30.33,10.0,Calm,Calm,-,0.01,,Overcast,0,2013-02-01 07:53:00